Location: ???????????
(54.6970°N, 39.1477°E)
Time: 02:49:45
(UTC+00:00)

Cosmos 1869 Rocket - Pass Details

Date: 19 May 2025
Orbit: 599 x 626 km, 82.5° (Epoch: 15 June)

Event Time Altitude Azimuth Distance (km) Brightness Sun altitude
Rises 23:08:23 0° 345° (NNW) 2,925 7.8 -11.8°
Reaches altitude 10° 23:10:39 10° 341° (NNW) 2,015 6.8 -11.7°
Maximum altitude 23:15:00 52° 265° (W) 781 3.9 -11.4°
Enters shadow 23:18:33 15° 192° (SSW) 1,708 5.2 -11.1°
